Time,TemperatureF,DewpointF,PressureIn,WindDirection,WindDirectionDegrees,WindSpeedMPH,WindSpeedGustMPH,Humidity,HourlyPrecipIn,Conditions,Clouds,dailyrainin,SolarRadiationWatts/m^2,SoftwareType,DateUTC
2013-03-10 00:21:00,11.0,0.0,-100.00,NNW,333,5.0,15.0,61,0.00,,,0.20,0.000000,,2013-03-10 07:21:00,
2013-03-10 00:32:00,11.0,0.0,-100.00,NNW,333,5.0,15.0,61,0.00,,,0.20,0.000000,,2013-03-10 07:32:00,
2013-03-10 00:42:00,11.0,0.0,-100.00,NNW,333,5.0,15.0,61,0.00,,,0.20,0.000000,,2013-03-10 07:42:00,
2013-03-10 00:52:00,11.0,0.0,-100.00,NNW,333,5.0,15.0,61,0.00,,,0.20,0.000000,,2013-03-10 07:52:00,
2013-03-10 01:21:00,11.0,0.0,-100.00,NW,311,3.0,9.0,59,0.00,,,0.20,0.000000,,2013-03-10 08:21:00,
2013-03-10 01:31:00,11.0,0.0,-100.00,NW,311,3.0,9.0,59,0.00,,,0.20,0.000000,,2013-03-10 08:31:00,
2013-03-10 01:42:00,11.0,0.0,-100.00,NW,311,3.0,9.0,59,0.00,,,0.20,0.000000,,2013-03-10 08:42:00,
2013-03-10 01:51:00,11.0,0.0,-100.00,NW,311,3.0,9.0,59,0.00,,,0.20,0.000000,,2013-03-10 08:51:00,
2013-03-10 03:21:00,10.0,-1.0,-100.00,North,10,4.0,13.0,61,0.00,,,0.20,0.000000,,2013-03-10 09:21:00,
2013-03-10 03:31:00,10.0,-1.0,-100.00,North,10,4.0,13.0,61,0.00,,,0.20,0.000000,,2013-03-10 09:31:00,
2013-03-10 03:41:00,10.0,-1.0,-100.00,North,10,4.0,13.0,61,0.00,,,0.20,0.000000,,2013-03-10 09:41:00,
2013-03-10 03:51:00,10.0,-1.0,-100.00,North,10,4.0,13.0,61,0.00,,,0.20,0.000000,,2013-03-10 09:51:00,
2013-03-10 04:21:00,8.0,-2.0,-100.00,NW,312,1.0,6.0,62,0.00,,,0.20,0.000000,,2013-03-10 10:21:00,
2013-03-10 04:32:00,8.0,-2.0,-100.00,NW,312,1.0,6.0,62,0.00,,,0.20,0.000000,,2013-03-10 10:32:00,
2013-03-10 04:42:00,8.0,-2.0,-100.00,NW,312,1.0,6.0,62,0.00,,,0.20,0.000000,,2013-03-10 10:42:00,
2013-03-10 04:52:00,8.0,-2.0,-100.00,NW,312,1.0,6.0,62,0.00,,,0.20,0.000000,,2013-03-10 10:52:00,
2013-03-10 08:21:00,13.0,-3.0,-100.00,WNW,301,10.0,18.0,48,-99.99,,,0.20,18.000000,,2013-03-10 14:21:00,
2013-03-10 08:32:00,13.0,-3.0,-100.00,WNW,301,10.0,18.0,48,-99.99,,,0.20,18.000000,,2013-03-10 14:32:00,
2013-03-10 08:41:00,13.0,-3.0,-100.00,WNW,301,10.0,18.0,48,-99.99,,,0.20,18.000000,,2013-03-10 14:41:00,
2013-03-10 08:51:00,13.0,-3.0,-100.00,WNW,301,10.0,18.0,48,-99.99,,,0.20,18.000000,,2013-03-10 14:51:00,
2013-03-10 09:21:00,19.0,-1.0,-100.00,NW,310,7.0,19.0,40,0.00,,,0.20,194.000000,,2013-03-10 15:21:00,
2013-03-10 09:32:00,19.0,-1.0,-100.00,NW,310,7.0,19.0,40,0.00,,,0.20,194.000000,,2013-03-10 15:32:00,
2013-03-10 09:42:00,19.0,-1.0,-100.00,NW,310,7.0,19.0,40,0.00,,,0.20,194.000000,,2013-03-10 15:42:00,
2013-03-10 09:51:00,19.0,-1.0,-100.00,NW,310,7.0,19.0,40,0.00,,,0.20,194.000000,,2013-03-10 15:51:00,
2013-03-10 10:21:00,26.0,3.0,-100.00,NNW,334,8.0,19.0,36,0.00,,,-99.99,400.000000,,2013-03-10 16:21:00,
2013-03-10 10:32:00,26.0,3.0,-100.00,NNW,334,8.0,19.0,36,0.00,,,-99.99,400.000000,,2013-03-10 16:32:00,
2013-03-10 10:41:00,26.0,3.0,-100.00,NNW,334,8.0,19.0,36,0.00,,,-99.99,400.000000,,2013-03-10 16:41:00,
2013-03-10 10:51:00,26.0,3.0,-100.00,NNW,334,8.0,19.0,36,0.00,,,-99.99,400.000000,,2013-03-10 16:51:00,
2013-03-10 12:22:00,34.0,6.0,-100.00,North,7,9.0,23.0,30,-99.99,,,0.20,728.000000,,2013-03-10 18:22:00,
2013-03-10 12:32:00,34.0,6.0,-100.00,North,7,9.0,23.0,30,-99.99,,,0.20,728.000000,,2013-03-10 18:32:00,
2013-03-10 12:42:00,34.0,6.0,-100.00,North,7,9.0,23.0,30,-99.99,,,0.20,728.000000,,2013-03-10 18:42:00,
2013-03-10 12:52:00,34.0,6.0,-100.00,North,7,9.0,23.0,30,-99.99,,,0.20,728.000000,,2013-03-10 18:52:00,
2013-03-10 13:21:00,34.0,8.0,-100.00,NNE,19,8.0,31.0,33,0.01,,,0.17,814.000000,,2013-03-10 19:21:00,
2013-03-10 13:32:00,34.0,8.0,-100.00,NNE,19,8.0,31.0,33,0.01,,,0.17,814.000000,,2013-03-10 19:32:00,
2013-03-10 13:42:00,34.0,8.0,-100.00,NNE,19,8.0,31.0,33,0.01,,,0.17,814.000000,,2013-03-10 19:42:00,
2013-03-10 13:52:00,34.0,8.0,-100.00,NNE,19,8.0,31.0,33,0.01,,,0.17,814.000000,,2013-03-10 19:52:00,
2013-03-10 14:22:00,34.0,8.0,-100.00,NNE,22,7.0,21.0,33,0.02,,,0.16,835.000000,,2013-03-10 20:22:00,
2013-03-10 14:32:00,34.0,8.0,-100.00,NNE,22,7.0,21.0,33,0.02,,,0.16,835.000000,,2013-03-10 20:32:00,
2013-03-10 14:42:00,34.0,8.0,-100.00,NNE,22,7.0,21.0,33,0.02,,,0.16,835.000000,,2013-03-10 20:42:00,
2013-03-10 14:52:00,34.0,8.0,-100.00,NNE,22,7.0,21.0,33,0.02,,,0.16,835.000000,,2013-03-10 20:52:00,
2013-03-10 15:23:00,37.0,10.0,-100.00,NNE,14,6.0,22.0,32,0.00,,,0.08,788.000000,,2013-03-10 21:23:00,
2013-03-10 15:32:00,37.0,10.0,-100.00,NNE,14,6.0,22.0,32,0.00,,,0.08,788.000000,,2013-03-10 21:32:00,
2013-03-10 15:42:00,37.0,10.0,-100.00,NNE,14,6.0,22.0,32,0.00,,,0.08,788.000000,,2013-03-10 21:42:00,
2013-03-10 15:52:00,37.0,10.0,-100.00,NNE,14,6.0,22.0,32,0.00,,,0.08,788.000000,,2013-03-10 21:52:00,
2013-03-10 16:22:00,35.0,8.0,-100.00,NNW,337,11.0,20.0,32,0.00,,,0.06,682.000000,,2013-03-10 22:22:00,
2013-03-10 16:32:00,35.0,8.0,-100.00,NNW,337,11.0,20.0,32,0.00,,,0.06,682.000000,,2013-03-10 22:32:00,
2013-03-10 16:43:00,35.0,8.0,-100.00,NNW,337,11.0,20.0,32,0.00,,,0.06,682.000000,,2013-03-10 22:43:00,
2013-03-10 16:52:00,35.0,8.0,-100.00,NNW,337,11.0,20.0,32,0.00,,,0.06,682.000000,,2013-03-10 22:52:00,
2013-03-10 17:23:00,33.0,8.0,-100.00,NNW,332,11.0,19.0,34,0.00,,,0.05,523.000000,,2013-03-10 23:23:00,
2013-03-10 17:33:00,33.0,8.0,-100.00,NNW,332,11.0,19.0,34,0.00,,,0.05,523.000000,,2013-03-10 23:33:00,
2013-03-10 17:42:00,33.0,8.0,-100.00,NNW,332,11.0,19.0,34,0.00,,,0.05,523.000000,,2013-03-10 23:42:00,
2013-03-10 17:52:00,33.0,8.0,-100.00,NNW,332,11.0,19.0,34,0.00,,,0.05,523.000000,,2013-03-10 23:52:00,
2013-03-10 18:23:00,31.0,6.0,-100.00,NNW,346,8.0,18.0,34,0.00,,,0.05,326.000000,,2013-03-11 00:23:00,
2013-03-10 18:33:00,31.0,6.0,-100.00,NNW,346,8.0,18.0,34,0.00,,,0.05,326.000000,,2013-03-11 00:33:00,
2013-03-10 18:43:00,31.0,6.0,-100.00,NNW,346,8.0,18.0,34,0.00,,,0.05,326.000000,,2013-03-11 00:43:00,
2013-03-10 18:52:00,31.0,6.0,-100.00,NNW,346,8.0,18.0,34,0.00,,,0.05,326.000000,,2013-03-11 00:52:00,
2013-03-10 19:23:00,26.0,6.0,-100.00,WNW,301,11.0,17.0,41,0.00,,,0.05,88.000000,,2013-03-11 01:23:00,
2013-03-10 19:32:00,26.0,6.0,-100.00,WNW,301,11.0,17.0,41,0.00,,,0.05,88.000000,,2013-03-11 01:32:00,
2013-03-10 19:42:00,26.0,6.0,-100.00,WNW,301,11.0,17.0,41,0.00,,,0.05,88.000000,,2013-03-11 01:42:00,
2013-03-10 19:52:00,26.0,6.0,-100.00,WNW,301,11.0,17.0,41,0.00,,,0.05,88.000000,,2013-03-11 01:52:00,
2013-03-10 20:22:00,24.0,7.0,-100.00,WNW,295,10.0,17.0,47,0.00,,,0.05,2.000000,,2013-03-11 02:22:00,
2013-03-10 20:32:00,24.0,7.0,-100.00,WNW,295,10.0,17.0,47,0.00,,,0.05,2.000000,,2013-03-11 02:32:00,
2013-03-10 20:42:00,24.0,7.0,-100.00,WNW,295,10.0,17.0,47,0.00,,,0.05,2.000000,,2013-03-11 02:42:00,
2013-03-10 20:52:00,24.0,7.0,-100.00,WNW,295,10.0,17.0,47,0.00,,,0.05,2.000000,,2013-03-11 02:52:00,
2013-03-10 21:22:00,23.0,7.0,-100.00,WNW,293,17.0,29.0,49,0.00,,,0.05,0.000000,,2013-03-11 03:22:00,
2013-03-10 21:32:00,23.0,7.0,-100.00,WNW,293,17.0,29.0,49,0.00,,,0.05,0.000000,,2013-03-11 03:32:00,
2013-03-10 21:42:00,23.0,7.0,-100.00,WNW,293,17.0,29.0,49,0.00,,,0.05,0.000000,,2013-03-11 03:42:00,
2013-03-10 21:52:00,23.0,7.0,-100.00,WNW,293,17.0,29.0,49,0.00,,,0.05,0.000000,,2013-03-11 03:52:00,
2013-03-10 22:22:00,23.0,7.0,-100.00,WNW,290,13.0,29.0,50,0.00,,,0.05,0.000000,,2013-03-11 04:22:00,
2013-03-10 22:32:00,23.0,7.0,-100.00,WNW,290,13.0,29.0,50,0.00,,,0.05,0.000000,,2013-03-11 04:32:00,
2013-03-10 22:42:00,23.0,7.0,-100.00,WNW,290,13.0,29.0,50,0.00,,,0.05,0.000000,,2013-03-11 04:42:00,
2013-03-10 22:52:00,23.0,7.0,-100.00,WNW,290,13.0,29.0,50,0.00,,,0.05,0.000000,,2013-03-11 04:52:00,
2013-03-10 23:22:00,24.0,6.0,-100.00,WNW,298,7.0,22.0,46,0.00,,,0.05,0.000000,,2013-03-11 05:22:00,
2013-03-10 23:32:00,24.0,6.0,-100.00,WNW,298,7.0,22.0,46,0.00,,,0.05,0.000000,,2013-03-11 05:32:00,
2013-03-10 23:42:00,24.0,6.0,-100.00,WNW,298,7.0,22.0,46,0.00,,,0.05,0.000000,,2013-03-11 05:42:00,
2013-03-10 23:52:00,24.0,6.0,-100.00,WNW,298,7.0,22.0,46,0.00,,,0.05,0.000000,,2013-03-11 05:52:00,